Location: Chinna Viriv?da
(16.5281°N, 81.0493°E)
Time: 14:56:40
(UTC+00:00)

Atlas Centaur 2 - Pass Details

Date: 14 April 2026
Orbit: 456 x 1246 km, 30.4° (Epoch: 11 May)

Event Time Altitude Azimuth Distance (km) Brightness Sun altitude
Rises 13:08:39 0° 306° (NW) 2,982 6.5 -5.0°
Reaches altitude 10° 13:10:58 10° 315° (NW) 2,185 5.4 -5.5°
Maximum altitude 13:15:47 37° 23° (NNE) 1,265 3.1 -6.6°
Drops below altitude 10° 13:21:43 10° 89° (E) 2,706 4.2 -8.0°
Enters shadow 13:22:05 - 90° (E) 2,830 4.3 -8.1°
